Torna al catalogo

FENGYUN 1C DEB

AttivoPO
NORAD 37461·DEBRIS·🇨🇳 China

Lanciato May 10, 1999 da Taiyuan Satellite Launch Center

Loading…

Prossimi Passaggi (prossime 24 ore)

TLE

AggiornatoSource: Space-Track

Epoca: Sep 11, 2026, 09:02 UTC

1 37461U 99025EJF 26254.37681381  .00001228  00000-0  22035-2 0  9999
2 37461  99.8627 115.2257 0660697  88.2607 279.3993 12.79809033555214

Traccia FENGYUN 1C DEB in tempo reale con AllMySat

Download on the App Store